• Processing (Info)

  • MPEC 2013-T67 : 2010 VD1 = 2013 TZ68

    The following Minor Planet Electronic Circular may be linked-to from your own Web pages, but must not otherwise be redistributed electronically.

    A form allowing access to any MPEC is at the bottom of this page.


    Read MPEC 2013-T66 Read MPEC 2013-T68


    M.P.E.C. 2013-T67                                Issued 2013 Oct. 7, 21:10 UT
    
         The Minor Planet Electronic Circulars contain information on unusual
             minor planets and routine data on comets.  They are published
       on behalf of Commission 20 of the International Astronomical Union by the
              Minor Planet Center, Smithsonian Astrophysical Observatory,
                              Cambridge, MA 02138, U.S.A.
    
                 Prepared using the Tamkin Foundation Computer Network
    
                                  MPC@CFA.HARVARD.EDU
                URL http://www.minorplanetcenter.net/    ISSN 1523-6714
    
                                 2010 VD1 = 2013 TZ68
    
                               Revision to MPEC 2010-V39
    
    Orbital elements:
    2010 VD1 = 2013 TZ68                                     Earth MOID = 0.0533 AU
    Id. F. Manca
    Epoch 2013 Nov. 4.0 TT = JDT 2456600.5                  MPC
    M  23.65230              (2000.0)            P               Q
    n   0.32607931     Peri.  296.38013     +0.79312236     +0.60730084
    a   2.0905179      Node    26.30292     -0.51494308     +0.70920619
    e   0.5426652      Incl.    5.99609     -0.32525459     +0.35806739
    P   3.02           H   22.2           G   0.15           U   3
    Residuals in seconds of arc
    101102 G96  0.5-  0.1-    101104 H01  0.0   0.1+    131006 300  0.5+  0.3+
    101102 G96  0.3-  0.2-    101107 F51  0.1+  0.1-    131006 E23  0.0   0.4+
    101102 G96  0.0   0.8+    101107 F51  0.2+  0.2-    131006 E23  1.3+  0.9-
    101102 G96  0.7-  0.1-    101107 F51  0.2+  0.2-    131006 300  0.0   0.3-
    101102 H01  0.0   0.1+    101107 F51  0.2+  0.2-    131006 300  0.2+  0.6+
    101102 H01  0.1-  0.1+    101115 291  0.0   0.5+    131006 958 (2.5-  1.6+)
    101102 H01  0.1+  0.2+    101115 291  1.1-  0.4+    131006 958 (1.6-  1.4+)
    101103 204  0.2+  1.4-    101115 291  0.2+  0.6-    131006 958  0.3-  1.1+
    101103 204  1.3+  0.0     101116 291  1.1+  0.6+    131006 958  0.9-  0.8+
    101103 H01  0.0   0.0     101116 291  0.5-  0.0     131006 I93  0.2+  0.1-
    101103 H01  0.0   0.0     101116 291  0.5-  0.4-    131006 I93  0.0   0.2-
    101103 H01  0.1+  0.0     131006 703  0.2-  0.4-    131006 I93  0.1-  0.3-
    101103 H01  0.1+  0.1+    131006 703  0.4-  0.2+    131007 H36  0.2-  0.4-
    101103 H21  0.0   0.2+    131006 703  0.2-  0.5+    131007 H36  0.0   0.2-
    101103 H21  0.3+  0.2+    131006 I41  0.0   0.2-    131007 H36  0.4-  0.3-
    101103 H21  0.2-  0.6+    131006 I41  0.2-  0.3-    131007 448  0.0   0.0
    101103 291  0.5-  0.3+    131006 I41  0.6-  0.3-    131007 448  0.2+  0.0
    101103 291  0.1+  0.4+    131006 291  0.1-  0.1+    131007 448  0.7+  0.2+
    101103 291  0.6-  0.2+    131006 291  0.0   0.0     131007 448  0.3+  0.0
    101104 H01  0.2-  0.1+    131006 291  0.0   0.0     131007 448  0.3+  0.2-
    101104 H01  0.2-  0.0     131006 300  0.2-  0.5+
    101104 H01  0.1-  0.1+    131006 E23  0.1+  0.8-
    
    Ephemeris:
    2010 VD1                 a,e,i = 2.09, 0.54, 6                   q = 0.9561
    Date    TT    R. A. (2000) Decl.     Delta      r     Elong.  Phase     V
    2013 09 07    12 14 27.7 -58 38 29   0.09307 0.9743    66.4   108.6    21.1
    ...
    2013 09 22    03 26 51.7 -46 34 49   0.05497 1.0282   115.0    62.3    18.2
    ...
    2013 09 30    02 26 51.1 -12 43 48   0.07981 1.0687   146.0    31.6    18.2
    ...
    2013 10 06    02 09 15.8 -00 16 54   0.1102  1.1033   158.7    19.2    18.6
    2013 10 07    02 07 06.4 +01 08 57   0.1158  1.1093   160.4    17.6    18.7
    2013 10 08    02 05 06.0 +02 26 57   0.1216  1.1155   162.0    16.1    18.7
    ...
    2013 10 14    01 55 29.5 +08 12 26   0.1583  1.1539   170.3     8.4    19.1
    ...
    2013 10 22    01 47 04.7 +12 34 40   0.2133  1.2085   178.4     1.3    19.4
    ...
    2013 11 06    01 40 03.0 +16 22 03   0.3356  1.3178   164.6    11.6    21.1
    
    Gareth V. Williams           (C) Copyright 2013 MPC           M.P.E.C. 2013-T67
    

    Read MPEC 2013-T66 Read MPEC 2013-T68


    MPEC number:

    Enter an MPEC number in one of the following forms:

    • 1997-B01 (the full form)
    • J97B01 (the packed version of the full form)
    • B01 (the abbreviated form)